Zurück zum Katalog

THORAD AGENA D DEB

AktivLEO
NORAD 4686·DEBRIS·🇺🇸 United States

Gestartet Apr 8, 1970 von Vandenberg Space Force Base

Loading…

Nächste Überflüge (nächste 24 Stunden)

TLE

AktuellSource: Space-Track

Epoche: Sep 14, 2026, 02:22 UTC

1 04686U 70025BK  26257.09903277  .00000478  00000-0  72525-3 0  9990
2 04686 100.2051   3.9370 0035586 245.4646 292.2378 13.58060650782773

Verfolge THORAD AGENA D DEB in Echtzeit mit AllMySat

Download on the App Store